Weather History for El Paso, TX

Change the Weather History Date:

Sunday, October 21, 2012

  Actual Average Record
Temperature  
Mean Temperature 72 °F 63 °F  
Max Temperature 83 °F 77 °F 89 °F (1899)
Min Temperature 60 °F 50 °F 32 °F (1898)
Degree Days  
Heating Degree Days 0 3  
Month to date heating degree days 3 34  
Since 1 July heating degree days 9 38  
Cooling Degree Days 7 1  
Month to date cooling degree days 145 74  
Year to date cooling degree days 2857 2320  
Growing Degree Days 21 (Base 50)    
Moisture  
Dew Point 43 °F    
Average Humidity 45    
Maximum Humidity 67    
Minimum Humidity 22    
Precipitation  
Precipitation 0.09 in 0.02 in 0.75 in (1901)
Month to date precipitation 0.10 0.43  
Year to date precipitation 5.93 8.26  
Snow  
Snow 0.00 in - - ()
Month to date snowfall 0.0  
Since 1 July snowfall 0.0  
Since 1 September snowfall 0.0  
Snow Depth 0.00 in    
Sea Level Pressure  
Sea Level Pressure 29.81 in    
Wind  
Wind Speed 9 mph (WSW)    
Max Wind Speed 39 mph    
Max Gust Speed 54 mph    
Visibility 10 miles    
Events Rain , Thunderstorm    
T = Trace of Precipitation, MM = Missing Value Source: NWS Daily Summary

Daily Weather History Graph

Daily Weather History Graph

Search for Another Location

Airport:

Trip Planner

Search our weather history database for the weather conditions in past years. The results will help you decide how hot, cold, wet, or windy it might be!

Date:

Astronomy

Oct. 21, 2012 Rise Set
Actual Time 7:13 AM MDT 6:25 PM MDT
Civil Twilight 6:48 AM MDT 6:50 PM MDT
Nautical Twilight 6:20 AM MDT 7:19 PM MDT
Astronomical Twilight 5:52 AM MDT 7:47 PM MDT
Moon 1:29 PM MDT (10/21) No Moon Set
Length of Visible Light 12h 01m
Length of Day
11h 12m
Waxing Crescent, 46% of the Moon is Illuminated
Oct 21
Waxing Crescent
Oct 21
First Quarter
Oct 29
Full
Nov 6
Last Quarter
Nov 13
New

Hourly Weather History & Observations

Time (MDT) Temp. Dew Point Humidity Pressure Visibility Wind Dir Wind Speed Gust Speed Precip Events Conditions
12:51 AM 75.9 °F 42.1 °F 30% 29.69 in 10.0 mi West 16.1 mph 25.3 mph N/A   Clear
1:51 AM 75.0 °F 42.1 °F 31% 29.69 in 10.0 mi West 19.6 mph 23.0 mph N/A   Clear
2:51 AM 72.0 °F 37.0 °F 28% 29.71 in 10.0 mi West 6.9 mph - N/A   Clear
3:51 AM 70.0 °F 37.0 °F 30% 29.71 in 10.0 mi WNW 4.6 mph - N/A   Clear
4:51 AM 72.0 °F 36.0 °F 27% 29.72 in 10.0 mi WNW 9.2 mph - N/A   Clear
5:51 AM 68.0 °F 37.0 °F 32% 29.74 in 10.0 mi West 4.6 mph - N/A   Clear
6:51 AM 64.9 °F 37.9 °F 37% 29.77 in 10.0 mi West 3.5 mph - N/A   Clear
7:51 AM 68.0 °F 39.0 °F 35% 29.79 in 10.0 mi Variable 3.5 mph - N/A   Clear
8:51 AM 68.0 °F 39.0 °F 35% 29.82 in 10.0 mi South 3.5 mph - N/A   Clear
9:51 AM 75.9 °F 43.0 °F 31% 29.81 in 10.0 mi WNW 11.5 mph - N/A   Clear
10:51 AM 77.0 °F 45.0 °F 32% 29.79 in 10.0 mi West 10.4 mph 19.6 mph N/A   Partly Cloudy
11:51 AM 78.1 °F 43.0 °F 29% 29.80 in 10.0 mi West 10.4 mph - N/A   Partly Cloudy
12:51 PM 80.1 °F 42.1 °F 26% 29.77 in 10.0 mi West 6.9 mph - N/A   Partly Cloudy
1:51 PM 81.0 °F 41.0 °F 24% 29.74 in 10.0 mi WSW 11.5 mph 17.3 mph N/A   Partly Cloudy
2:51 PM 82.0 °F 39.0 °F 22% 29.72 in 10.0 mi WSW 8.1 mph - N/A   Partly Cloudy
3:51 PM 81.0 °F 39.9 °F 23% 29.72 in 10.0 mi SW 8.1 mph - 0.00 in   Scattered Clouds
4:51 PM 82.0 °F 41.0 °F 23% 29.71 in 10.0 mi WSW 11.5 mph 18.4 mph N/A   Scattered Clouds
5:51 PM 80.1 °F 41.0 °F 25% 29.73 in 10.0 mi West 10.4 mph - N/A   Mostly Cloudy
6:18 PM 64.4 °F 55.4 °F 73% 29.98 in 7.0 mi WSW 32.2 mph 46.0 mph 0.01 in Rain Rain
6:51 PM 72.0 °F 46.9 °F 41% 29.81 in 10.0 mi WNW 21.9 mph 33.4 mph 0.02 in   Mostly Cloudy
7:51 PM 73.0 °F 39.9 °F 30% 29.81 in 10.0 mi West 13.8 mph 20.7 mph N/A   Mostly Cloudy
8:22 PM 71.6 °F 39.2 °F 31% 30.02 in 10.0 mi WSW 24.2 mph 40.3 mph 0.00 in Rain , Thunderstorm Light Thunderstorms and Rain
8:42 PM 66.2 °F 46.4 °F 49% 30.03 in 10.0 mi WSW 15.0 mph 34.5 mph N/A Rain Light Rain
8:51 PM 68.0 °F 45.0 °F 43% 29.86 in 10.0 mi West 8.1 mph - 0.02 in   Overcast
9:13 PM 60.8 °F 51.8 °F 72% 30.07 in 8.0 mi SSW 17.3 mph 34.5 mph 0.02 in Rain Light Rain
9:51 PM 62.1 °F 52.0 °F 70% 29.84 in 10.0 mi ESE 10.4 mph - 0.02 in   Overcast
10:34 PM 69.8 °F 42.8 °F 38% 29.99 in 10.0 mi South 11.5 mph 21.9 mph 0.01 in Rain , Thunderstorm Light Thunderstorms and Rain
10:51 PM 66.2 °F 46.4 °F 49% 29.99 in 10.0 mi SW 13.8 mph 28.8 mph N/A Rain , Thunderstorm Light Thunderstorms and Rain
11:19 PM 64.4 °F 51.8 °F 64% 29.99 in 10.0 mi SSW 8.1 mph - 0.02 in   Mostly Cloudy
11:51 PM 63.0 °F 52.0 °F 67% 29.79 in 10.0 mi South 6.9 mph - 0.02 in   Mostly Cloudy